When you browse on this site, cookies collect data to enhance your experience and personalize the content and advertising you see.
Visit our Privacy Policy to learn more. By continuing to use the site, you agree to this use of cookies and data.
  • In Sweden
  • List of Countries
  • For 7 days
  • Water Temperature
  • Satellite Maps
  • Weather Map
  • Weather Widgets
  • user-avatar
    Login

    Hourly Weather Lugansk

    Today, 16 June, Sunday

    Time Temperature Precipitation Wind Pressure Humidity
    00:00 +12°C° 2.5 mm 5 mps 742 mmHg 84%
    01:00 +10°C° 2.5 mm 6 mps 742 mmHg 88%
    02:00 +9°C° 2.5 mm 7 mps 741 mmHg 92%
    03:00 +9°C° 4.8 mm 8 mps 741 mmHg 91%
    04:00 +9°C° 4.8 mm 8 mps 741 mmHg 90%
    05:00 +7°C° 4.8 mm 9 mps 741 mmHg 89%
    06:00 +7°C° 2 mm 8 mps 742 mmHg 89%
    07:00 +8°C° 2 mm 7 mps 742 mmHg 89%
    08:00 +8°C° 2 mm 5 mps 743 mmHg 89%
    09:00 +9°C° 1 mm 5 mps 743 mmHg 83%
    10:00 +9°C° 1 mm 6 mps 744 mmHg 78%
    11:00 +10°C° 1 mm 6 mps 745 mmHg 72%
    12:00 +12°C° 0.1 mm 5 mps 745 mmHg 66%
    13:00 +13°C° 0.1 mm 4 mps 746 mmHg 60%
    14:00 +15°C° 0.1 mm 4 mps 746 mmHg 55%
    15:00 +15°C° 0.3 mm 4 mps 746 mmHg 56%
    16:00 +15°C° 0.3 mm 4 mps 746 mmHg 57%
    17:00 +15°C° 0.3 mm 5 mps 747 mmHg 58%
    18:00 +15°C° 0.1 mm 4 mps 747 mmHg 62%
    19:00 +14°C° 0.1 mm 3 mps 747 mmHg 65%
    20:00 +13°C° 0.1 mm 3 mps 747 mmHg 69%
    21:00 +12°C° 0 mm 3 mps 747 mmHg 69%
    22:00 +12°C° 0 mm 4 mps 747 mmHg 68%
    23:00 +11°C° 0 mm 4 mps 747 mmHg 68%

    Tomorrow, 17 June, Monday

    Time Temperature Precipitation Wind Pressure Humidity
    00:00 +11°C° 0 mm 4 mps 747 mmHg 68%
    01:00 +11°C° 0 mm 4 mps 747 mmHg 67%
    02:00 +9°C° 0 mm 5 mps 747 mmHg 67%
    03:00 +9°C° 0 mm 5 mps 747 mmHg 69%
    04:00 +10°C° 0 mm 5 mps 747 mmHg 70%
    05:00 +10°C° 0 mm 5 mps 747 mmHg 72%
    06:00 +13°C° 0 mm 5 mps 747 mmHg 67%
    07:00 +15°C° 0 mm 5 mps 747 mmHg 62%
    08:00 +17°C° 0 mm 6 mps 747 mmHg 57%
    09:00 +19°C° 0 mm 5 mps 747 mmHg 52%
    10:00 +20°C° 0 mm 5 mps 746 mmHg 47%
    11:00 +21°C° 0 mm 5 mps 746 mmHg 42%
    12:00 +21°C° 0 mm 5 mps 746 mmHg 42%
    13:00 +21°C° 0 mm 4 mps 746 mmHg 42%
    14:00 +21°C° 0 mm 4 mps 745 mmHg 42%
    15:00 +21°C° 0 mm 4 mps 745 mmHg 42%
    16:00 +21°C° 0 mm 4 mps 745 mmHg 41%
    17:00 +21°C° 0 mm 4 mps 744 mmHg 41%
    18:00 +20°C° 0 mm 3 mps 744 mmHg 45%
    19:00 +19°C° 0 mm 3 mps 744 mmHg 49%
    20:00 +17°C° 0 mm 3 mps 744 mmHg 53%
    21:00 +17°C° 0 mm 3 mps 744 mmHg 52%
    22:00 +17°C° 0 mm 4 mps 743 mmHg 51%
    23:00 +15°C° 0 mm 4 mps 743 mmHg 50%

    Day after tomorrow, 18 June, Tuesday

    Time Temperature Precipitation Wind Pressure Humidity
    00:00 +15°C° 0 mm 4 mps 743 mmHg 51%
    01:00 +15°C° 0 mm 4 mps 743 mmHg 52%
    02:00 +15°C° 0 mm 4 mps 742 mmHg 54%
    03:00 +16°C° 0 mm 3 mps 742 mmHg 60%
    04:00 +16°C° 0 mm 2 mps 742 mmHg 65%
    05:00 +16°C° 0 mm 1 mps 742 mmHg 71%
    06:00 +16°C° 0 mm 1 mps 742 mmHg 71%
    07:00 +16°C° 0 mm 1 mps 742 mmHg 71%
    08:00 +16°C° 0 mm 2 mps 741 mmHg 72%
    09:00 +16°C° 0.4 mm 2 mps 741 mmHg 75%
    10:00 +15°C° 0.4 mm 2 mps 741 mmHg 78%
    11:00 +15°C° 0.4 mm 2 mps 741 mmHg 82%
    12:00 +15°C° 0.1 mm 2 mps 741 mmHg 82%
    13:00 +15°C° 0.1 mm 2 mps 741 mmHg 82%
    14:00 +15°C° 0.1 mm 2 mps 740 mmHg 83%
    15:00 +14°C° 0.1 mm 3 mps 740 mmHg 81%
    16:00 +16°C° 0.1 mm 3 mps 740 mmHg 79%
    17:00 +15°C° 0.1 mm 4 mps 741 mmHg 77%
    18:00 +15°C° 0.1 mm 4 mps 741 mmHg 78%
    19:00 +14°C° 0.1 mm 3 mps 742 mmHg 78%
    20:00 +14°C° 0.1 mm 3 mps 742 mmHg 79%
    21:00 +13°C° 0 mm 3 mps 743 mmHg 80%
    22:00 +12°C° 0 mm 3 mps 743 mmHg 81%
    23:00 +12°C° 0 mm 3 mps 744 mmHg 81%

    19 June, Wednesday

    Time Temperature Precipitation Wind Pressure Humidity
    00:00 +11°C° 0 mm 3 mps 744 mmHg 81%
    01:00 +11°C° 0 mm 3 mps 744 mmHg 80%
    02:00 +11°C° 0 mm 3 mps 744 mmHg 80%
    03:00 +11°C° 0 mm 3 mps 744 mmHg 78%
    04:00 +11°C° 0 mm 3 mps 744 mmHg 75%
    05:00 +11°C° 0 mm 3 mps 744 mmHg 73%
    06:00 +14°C° 0 mm 3 mps 745 mmHg 65%
    07:00 +17°C° 0 mm 4 mps 745 mmHg 57%
    08:00 +19°C° 0 mm 4 mps 745 mmHg 49%
    09:00 +20°C° 0 mm 5 mps 745 mmHg 47%
    10:00 +21°C° 0 mm 6 mps 745 mmHg 44%
    11:00 +22°C° 0 mm 7 mps 745 mmHg 42%
    12:00 +22°C° 0.2 mm 7 mps 745 mmHg 44%
    13:00 +22°C° 0.2 mm 7 mps 745 mmHg 46%
    14:00 +22°C° 0.2 mm 7 mps 745 mmHg 47%
    15:00 +21°C° 0.2 mm 7 mps 746 mmHg 50%
    16:00 +20°C° 0.2 mm 6 mps 747 mmHg 52%
    17:00 +20°C° 0.2 mm 6 mps 747 mmHg 54%
    18:00 +17°C° 0 mm 5 mps 747 mmHg 57%
    19:00 +17°C° 0 mm 4 mps 748 mmHg 61%
    20:00 +16°C° 0 mm 3 mps 748 mmHg 65%
    21:00 +14°C° 0 mm 3 mps 749 mmHg 66%
    22:00 +13°C° 0 mm 3 mps 749 mmHg 68%
    23:00 +13°C° 0 mm 2 mps 749 mmHg 69%

    20 June, Thursday

    Time Temperature Precipitation Wind Pressure Humidity
    00:00 +12°C° 0 mm 2 mps 749 mmHg 69%
    01:00 +12°C° 0 mm 1 mps 750 mmHg 69%
    02:00 +11°C° 0 mm 1 mps 750 mmHg 70%
    03:00 +12°C° 0 mm 1 mps 750 mmHg 69%
    04:00 +12°C° 0 mm 1 mps 750 mmHg 68%
    05:00 +12°C° 0 mm 1 mps 750 mmHg 67%
    06:00 +14°C° 0 mm 2 mps 750 mmHg 61%
    07:00 +16°C° 0 mm 2 mps 751 mmHg 56%
    08:00 +17°C° 0 mm 3 mps 751 mmHg 50%
    09:00 +18°C° 0 mm 2 mps 751 mmHg 47%
    10:00 +19°C° 0 mm 2 mps 751 mmHg 44%
    11:00 +20°C° 0 mm 2 mps 751 mmHg 41%
    12:00 +21°C° 0 mm 2 mps 750 mmHg 40%
    13:00 +21°C° 0 mm 2 mps 750 mmHg 39%
    14:00 +23°C° 0 mm 2 mps 750 mmHg 38%
    15:00 +23°C° 0 mm 2 mps 750 mmHg 39%
    16:00 +23°C° 0 mm 2 mps 750 mmHg 39%
    17:00 +23°C° 0 mm 1 mps 750 mmHg 39%
    18:00 +22°C° 0 mm 1 mps 750 mmHg 44%
    19:00 +21°C° 0 mm 1 mps 750 mmHg 48%
    20:00 +20°C° 0 mm 1 mps 749 mmHg 53%
    21:00 +19°C° 0 mm 1 mps 749 mmHg 52%
    22:00 +18°C° 0 mm 2 mps 749 mmHg 50%
    23:00 +18°C° 0 mm 2 mps 749 mmHg 49%

    21 June, Friday

    Time Temperature Precipitation Wind Pressure Humidity
    00:00 +17°C° 0 mm 3 mps 749 mmHg 52%
    01:00 +16°C° 0 mm 3 mps 749 mmHg 56%
    02:00 +14°C° 0 mm 3 mps 748 mmHg 59%
    03:00 +14°C° 0 mm 3 mps 748 mmHg 60%
    04:00 +14°C° 0 mm 3 mps 748 mmHg 60%
    05:00 +16°C° 0 mm 3 mps 748 mmHg 61%
    06:00 +17°C° 0 mm 3 mps 748 mmHg 57%
    07:00 +18°C° 0 mm 3 mps 748 mmHg 54%
    08:00 +19°C° 0 mm 3 mps 748 mmHg 50%
    09:00 +20°C° 0 mm 2 mps 748 mmHg 46%
    10:00 +23°C° 0 mm 2 mps 748 mmHg 42%
    11:00 +24°C° 0 mm 2 mps 748 mmHg 38%
    12:00 +24°C° 0 mm 2 mps 747 mmHg 37%
    13:00 +25°C° 0 mm 2 mps 747 mmHg 36%
    14:00 +25°C° 0 mm 2 mps 746 mmHg 35%
    15:00 +25°C° 0 mm 2 mps 746 mmHg 35%
    16:00 +26°C° 0 mm 2 mps 746 mmHg 34%
    17:00 +26°C° 0 mm 2 mps 745 mmHg 33%
    18:00 +24°C° 0 mm 2 mps 745 mmHg 39%
    19:00 +22°C° 0 mm 3 mps 745 mmHg 45%
    20:00 +20°C° 0 mm 4 mps 745 mmHg 51%
    21:00 +19°C° 0 mm 4 mps 745 mmHg 54%
    22:00 +19°C° 0 mm 4 mps 745 mmHg 56%
    23:00 +18°C° 0 mm 4 mps 745 mmHg 59%
    Show more